When you browse on this site, cookies collect data to enhance your experience and personalize the content and advertising you see.
Visit our Privacy Policy to learn more. By continuing to use the site, you agree to this use of cookies and data.
  • In Österreich
  • Länderverzeichnis
  • Für 7 Tage
  • Wassertemperatur
  • Wetterkarte
  • News
  • Widgets
  • user-avatar
    Anmelden

    Stündliche Wetter Rangpur

    Heute, 20 Februar, Donnerstag

    Zeit Temperatur Niederschläge Wind Luftdruck Luftfeuchtigkeit
    00:00 +22°C° 0 mm 1 m/S 758 mmHg 37%
    01:00 +22°C° 0 mm 1 m/S 758 mmHg 37%
    02:00 +22°C° 0 mm 1 m/S 758 mmHg 38%
    03:00 +21°C° 0 mm 1 m/S 758 mmHg 39%
    04:00 +21°C° 0 mm 1 m/S 758 mmHg 41%
    05:00 +20°C° 0 mm 1 m/S 758 mmHg 43%
    06:00 +19°C° 0 mm 2 m/S 758 mmHg 50%
    07:00 +20°C° 0 mm 2 m/S 759 mmHg 47%
    08:00 +23°C° 0 mm 2 m/S 760 mmHg 44%
    09:00 +25°C° 0 mm 2 m/S 760 mmHg 41%
    10:00 +26°C° 0 mm 2 m/S 760 mmHg 36%
    11:00 +28°C° 0 mm 2 m/S 760 mmHg 32%
    12:00 +28°C° 0 mm 0 m/S 760 mmHg 25%
    13:00 +29°C° 0 mm 0 m/S 759 mmHg 23%
    14:00 +31°C° 0 mm 1 m/S 759 mmHg 22%
    15:00 +31°C° 0 mm 1 m/S 758 mmHg 20%
    16:00 +30°C° 0 mm 1 m/S 758 mmHg 22%
    17:00 +29°C° 0 mm 1 m/S 758 mmHg 23%
    18:00 +26°C° 0 mm 0 m/S 758 mmHg 25%
    19:00 +25°C° 0 mm 0 m/S 758 mmHg 26%
    20:00 +24°C° 0 mm 0 m/S 759 mmHg 27%
    21:00 +23°C° 0 mm 0 m/S 759 mmHg 28%
    22:00 +25°C° 0 mm 1 m/S 759 mmHg 30%
    23:00 +24°C° 0 mm 1 m/S 759 mmHg 32%

    Morgen, 21 Februar, Freitag

    Zeit Temperatur Niederschläge Wind Luftdruck Luftfeuchtigkeit
    00:00 +23°C° 0 mm 1 m/S 759 mmHg 34%
    01:00 +23°C° 0 mm 1 m/S 759 mmHg 36%
    02:00 +21°C° 0 mm 2 m/S 759 mmHg 38%
    03:00 +20°C° 0 mm 2 m/S 758 mmHg 40%
    04:00 +20°C° 0 mm 2 m/S 759 mmHg 47%
    05:00 +19°C° 0 mm 2 m/S 759 mmHg 55%
    06:00 +19°C° 0 mm 3 m/S 759 mmHg 62%
    07:00 +20°C° 0 mm 3 m/S 760 mmHg 60%
    08:00 +22°C° 0 mm 4 m/S 761 mmHg 57%
    09:00 +25°C° 0 mm 4 m/S 762 mmHg 55%
    10:00 +27°C° 0 mm 4 m/S 761 mmHg 48%
    11:00 +29°C° 0 mm 4 m/S 761 mmHg 40%
    12:00 +31°C° 0 mm 3 m/S 761 mmHg 33%
    19:00 +28°C° 0 mm 1 m/S 760 mmHg 36%
    20:00 +27°C° 0 mm 1 m/S 760 mmHg 38%
    21:00 +26°C° 0 mm 1 m/S 761 mmHg 40%
    22:00 +26°C° 0 mm 1 m/S 761 mmHg 42%
    23:00 +25°C° 0 mm 1 m/S 761 mmHg 43%

    übermorgen, 22 Februar, Samstag

    Zeit Temperatur Niederschläge Wind Luftdruck Luftfeuchtigkeit
    00:00 +25°C° 0 mm 2 m/S 760 mmHg 45%
    01:00 +24°C° 0 mm 2 m/S 760 mmHg 46%
    02:00 +24°C° 0 mm 2 m/S 760 mmHg 47%
    03:00 +23°C° 0 mm 2 m/S 760 mmHg 48%
    04:00 +23°C° 0 mm 2 m/S 760 mmHg 50%
    05:00 +23°C° 0 mm 2 m/S 760 mmHg 51%
    06:00 +21°C° 0 mm 3 m/S 760 mmHg 53%
    07:00 +24°C° 0 mm 3 m/S 761 mmHg 49%
    08:00 +25°C° 0 mm 4 m/S 761 mmHg 46%
    09:00 +27°C° 0 mm 4 m/S 762 mmHg 42%
    10:00 +29°C° 0 mm 4 m/S 762 mmHg 38%
    11:00 +32°C° 0 mm 4 m/S 761 mmHg 33%
    12:00 +33°C° 0 mm 4 m/S 761 mmHg 29%
    13:00 +33°C° 0 mm 3 m/S 760 mmHg 28%
    14:00 +34°C° 0 mm 3 m/S 759 mmHg 27%
    15:00 +34°C° 0 mm 2 m/S 759 mmHg 26%
    16:00 +32°C° 0 mm 2 m/S 759 mmHg 27%
    17:00 +30°C° 0 mm 1 m/S 759 mmHg 29%
    18:00 +29°C° 0 mm 1 m/S 759 mmHg 30%
    19:00 +28°C° 0 mm 1 m/S 759 mmHg 33%
    20:00 +27°C° 0 mm 2 m/S 759 mmHg 35%
    21:00 +26°C° 0 mm 2 m/S 760 mmHg 38%
    22:00 +25°C° 0 mm 2 m/S 760 mmHg 40%
    23:00 +25°C° 0 mm 2 m/S 760 mmHg 42%

    23 Februar, Sonntag

    Zeit Temperatur Niederschläge Wind Luftdruck Luftfeuchtigkeit
    00:00 +24°C° 0 mm 2 m/S 760 mmHg 44%
    01:00 +24°C° 0 mm 2 m/S 759 mmHg 44%
    02:00 +24°C° 0 mm 2 m/S 759 mmHg 44%
    03:00 +23°C° 0 mm 2 m/S 759 mmHg 45%
    04:00 +23°C° 0 mm 2 m/S 759 mmHg 45%
    05:00 +23°C° 0 mm 2 m/S 758 mmHg 45%
    06:00 +23°C° 0 mm 2 m/S 758 mmHg 45%
    07:00 +24°C° 0 mm 2 m/S 759 mmHg 42%
    08:00 +26°C° 0 mm 2 m/S 760 mmHg 39%
    09:00 +28°C° 0 mm 3 m/S 760 mmHg 35%
    10:00 +29°C° 0 mm 2 m/S 760 mmHg 33%
    11:00 +31°C° 0 mm 2 m/S 760 mmHg 30%
    12:00 +32°C° 0 mm 2 m/S 759 mmHg 27%
    13:00 +34°C° 0 mm 2 m/S 758 mmHg 26%
    14:00 +34°C° 0 mm 2 m/S 758 mmHg 24%
    15:00 +34°C° 0 mm 1 m/S 757 mmHg 23%
    16:00 +33°C° 0 mm 1 m/S 757 mmHg 25%
    17:00 +31°C° 0 mm 1 m/S 756 mmHg 27%
    18:00 +30°C° 0 mm 1 m/S 756 mmHg 29%
    19:00 +29°C° 0 mm 1 m/S 756 mmHg 31%
    20:00 +28°C° 0 mm 1 m/S 757 mmHg 33%
    21:00 +27°C° 0 mm 2 m/S 757 mmHg 35%
    22:00 +26°C° 0 mm 2 m/S 757 mmHg 37%
    23:00 +26°C° 0 mm 2 m/S 757 mmHg 40%

    24 Februar, Montag

    Zeit Temperatur Niederschläge Wind Luftdruck Luftfeuchtigkeit
    00:00 +25°C° 0 mm 2 m/S 757 mmHg 42%
    01:00 +25°C° 0.1 mm 2 m/S 757 mmHg 43%
    02:00 +24°C° 0.1 mm 2 m/S 757 mmHg 45%
    03:00 +24°C° 0.1 mm 2 m/S 756 mmHg 46%
    04:00 +23°C° 0.4 mm 1 m/S 756 mmHg 50%
    05:00 +23°C° 0.4 mm 1 m/S 757 mmHg 53%
    06:00 +22°C° 0.4 mm 1 m/S 757 mmHg 56%
    07:00 +23°C° 0.3 mm 2 m/S 757 mmHg 53%
    08:00 +24°C° 0.3 mm 2 m/S 758 mmHg 51%
    09:00 +25°C° 0.3 mm 2 m/S 758 mmHg 48%
    10:00 +27°C° 0.2 mm 2 m/S 758 mmHg 44%
    11:00 +28°C° 0.2 mm 2 m/S 758 mmHg 41%
    12:00 +29°C° 0.2 mm 2 m/S 758 mmHg 37%
    13:00 +30°C° 0 mm 2 m/S 757 mmHg 35%
    14:00 +31°C° 0 mm 2 m/S 756 mmHg 33%
    15:00 +31°C° 0 mm 1 m/S 755 mmHg 31%
    16:00 +31°C° 0 mm 2 m/S 755 mmHg 33%
    17:00 +30°C° 0 mm 2 m/S 755 mmHg 35%
    18:00 +29°C° 0 mm 3 m/S 755 mmHg 37%
    19:00 +28°C° 0 mm 2 m/S 756 mmHg 39%
    20:00 +27°C° 0 mm 1 m/S 756 mmHg 41%
    21:00 +27°C° 0 mm 1 m/S 757 mmHg 43%
    22:00 +26°C° 0.1 mm 1 m/S 756 mmHg 45%
    23:00 +26°C° 0.1 mm 2 m/S 756 mmHg 48%

    25 Februar, Dienstag

    Zeit Temperatur Niederschläge Wind Luftdruck Luftfeuchtigkeit
    00:00 +25°C° 0.1 mm 2 m/S 756 mmHg 51%
    01:00 +24°C° 0.2 mm 2 m/S 756 mmHg 54%
    02:00 +24°C° 0.2 mm 2 m/S 756 mmHg 57%
    03:00 +23°C° 0.2 mm 2 m/S 756 mmHg 60%
    04:00 +23°C° 0.4 mm 2 m/S 756 mmHg 62%
    05:00 +23°C° 0.4 mm 1 m/S 756 mmHg 63%
    06:00 +23°C° 0.4 mm 1 m/S 756 mmHg 65%
    07:00 +23°C° 0.4 mm 2 m/S 756 mmHg 64%
    08:00 +24°C° 0.4 mm 3 m/S 757 mmHg 62%
    09:00 +23°C° 0.4 mm 4 m/S 758 mmHg 61%
    10:00 +23°C° 0.1 mm 4 m/S 758 mmHg 60%
    11:00 +25°C° 0.1 mm 4 m/S 758 mmHg 59%
    12:00 +25°C° 0.1 mm 4 m/S 758 mmHg 59%
    13:00 +25°C° 0.1 mm 3 m/S 757 mmHg 59%
    14:00 +25°C° 0.1 mm 3 m/S 757 mmHg 59%
    15:00 +25°C° 0.1 mm 2 m/S 756 mmHg 59%
    16:00 +24°C° 0.1 mm 2 m/S 756 mmHg 61%
    17:00 +24°C° 0.1 mm 3 m/S 756 mmHg 64%
    18:00 +22°C° 0.1 mm 3 m/S 756 mmHg 66%
    19:00 +22°C° 0.2 mm 4 m/S 756 mmHg 70%
    20:00 +21°C° 0.2 mm 4 m/S 757 mmHg 73%
    21:00 +20°C° 0.2 mm 5 m/S 757 mmHg 77%
    22:00 +20°C° 0.3 mm 5 m/S 757 mmHg 77%
    23:00 +20°C° 0.3 mm 4 m/S 757 mmHg 78%
    Mehr zeigen